| time (UTC) | temp F | wind direction | speed MPH | gust MPH | rain 1hr in | rain 24hr in | rain mn in | humidity % | barometer mb |
| 20260504081037 | 66 | 203 | 2.0 | 7.0 | 0.00 | 0.00 | 0.00 | 68 | 1018.0 |
| 20260504045016 | 53 | 45 | 1.0 | 3.0 | 0.00 | 0.00 | 0.00 | 84 | 1017.5 |
| 20260504044016 | 51 | 45 | 1.0 | 2.0 | 0.00 | 0.00 | 0.00 | 86 | 1017.4 |
| 20260504043016 | 50 | 0.0 | 0.0 | 0.00 | 0.00 | 0.00 | 88 | 1017.3 | |
| 20260504042017 | 50 | 0.0 | 1.0 | 0.00 | 0.00 | 0.00 | 88 | 1017.3 | |
| 20260504041016 | 49 | 0.0 | 0.0 | 0.00 | 0.00 | 0.00 | 88 | 1017.2 | |
| 20260504040016 | 49 | 0.0 | 2.0 | 0.00 | 0.00 | 0.00 | 87 | 1017.1 | |
| 20260504035057 | 50 | 0.0 | 1.0 | 0.00 | 0.00 | 0.00 | 88 | 1017.1 | |
| 20260504034016 | 50 | 0.0 | 0.0 | 0.00 | 0.00 | 0.00 | 88 | 1017.1 | |
| 20260504033016 | 50 | 0.0 | 0.0 | 0.00 | 0.00 | 0.00 | 88 | 1017.1 | |
| 20260504032016 | 51 | 0.0 | 1.0 | 0.00 | 0.00 | 0.00 | 88 | 1017.1 | |
| 20260504031037 | 51 | 23 | 1.0 | 3.0 | 0.00 | 0.00 | 0.00 | 88 | 1017.2 |
| 20260504030036 | 51 | 0.0 | 0.0 | 0.00 | 0.00 | 0.00 | 87 | 1017.4 | |
| 20260504025016 | 52 | 338 | 1.0 | 3.0 | 0.00 | 0.00 | 0.00 | 86 | 1017.4 |
| 20260504024016 | 52 | 0.0 | 2.0 | 0.00 | 0.00 | 0.00 | 86 | 1017.4 | |
| 20260504023016 | 51 | 0.0 | 1.0 | 0.00 | 0.00 | 0.00 | 88 | 1017.6 | |
| 20260504022016 | 51 | 0.0 | 0.0 | 0.00 | 0.00 | 0.00 | 89 | 1017.6 | |
| 20260504021016 | 51 | 338 | 1.0 | 1.0 | 0.00 | 0.00 | 0.00 | 89 | 1017.6 |
| 20260504020016 | 51 | 0.0 | 0.0 | 0.00 | 0.00 | 0.00 | 87 | 1017.5 | |
| 20260504015016 | 51 | 0.0 | 0.0 | 0.00 | 0.00 | 0.00 | 87 | 1017.6 | |
| 20260504014016 | 52 | 0.0 | 2.0 | 0.00 | 0.00 | 0.00 | 88 | 1017.5 | |
| 20260504013036 | 52 | 0.0 | 0.0 | 0.00 | 0.00 | 0.00 | 87 | 1017.5 | |
| 20260504012016 | 52 | 0.0 | 0.0 | 0.00 | 0.00 | 0.00 | 86 | 1017.4 | |
| 20260504011016 | 53 | 0.0 | 2.0 | 0.00 | 0.00 | 0.00 | 86 | 1017.3 | |
| 20260504010016 | 53 | 0.0 | 1.0 | 0.00 | 0.00 | 0.00 | 85 | 1017.3 | |
| 20260504005016 | 53 | 0.0 | 1.0 | 0.00 | 0.00 | 0.00 | 83 | 1017.2 | |
| 20260504004016 | 53 | 0.0 | 0.0 | 0.00 | 0.00 | 0.00 | 82 | 1017.3 | |
| 20260504003016 | 54 | 0.0 | 1.0 | 0.00 | 0.00 | 0.00 | 81 | 1017.2 | |
| 20260504002019 | 54 | 45 | 3.0 | 6.0 | 0.00 | 0.00 | 0.00 | 83 | 1017.1 |
| 20260504001016 | 52 | 45 | 1.0 | 4.0 | 0.00 | 0.00 | 0.00 | 83 | 1017.1 |
| 20260504000016 | 53 | 45 | 1.0 | 3.0 | 0.00 | 0.00 | 0.00 | 83 | 1017.1 |
| 20260503235016 | 53 | 0.0 | 2.0 | 0.00 | 0.00 | 0.00 | 83 | 1017.2 | |
| 20260503234016 | 54 | 0.0 | 1.0 | 0.00 | 0.00 | 0.00 | 84 | 1017.4 | |
| 20260503233056 | 55 | 0.0 | 0.0 | 0.00 | 0.00 | 0.00 | 84 | 1017.5 | |
| 20260503232036 | 54 | 338 | 1.0 | 2.0 | 0.00 | 0.00 | 0.00 | 86 | 1017.6 |
| 20260503231016 | 54 | 23 | 1.0 | 3.0 | 0.00 | 0.00 | 0.00 | 86 | 1017.6 |
| 20260503230036 | 54 | 0.0 | 0.0 | 0.00 | 0.00 | 0.00 | 87 | 1017.7 | |
| 20260503225016 | 54 | 0.0 | 0.0 | 0.00 | 0.00 | 0.00 | 87 | 1017.8 | |
| 20260503224016 | 54 | 0.0 | 0.0 | 0.00 | 0.00 | 0.00 | 86 | 1017.8 | |
| 20260503223016 | 55 | 0.0 | 0.0 | 0.00 | 0.00 | 0.00 | 86 | 1017.7 | |
| 20260503222016 | 55 | 0.0 | 0.0 | 0.00 | 0.00 | 0.00 | 86 | 1017.8 | |
| 20260503221015 | 56 | 338 | 1.0 | 2.0 | 0.00 | 0.00 | 0.00 | 86 | 1017.6 |
| 20260503220036 | 56 | 338 | 1.0 | 2.0 | 0.00 | 0.00 | 0.00 | 85 | 1017.6 |
| 20260503215016 | 56 | 338 | 1.0 | 2.0 | 0.00 | 0.00 | 0.00 | 85 | 1017.6 |
| 20260503214036 | 57 | 0.0 | 0.0 | 0.00 | 0.00 | 0.00 | 84 | 1017.7 | |
| 20260503213016 | 58 | 0.0 | 0.0 | 0.00 | 0.00 | 0.00 | 82 | 1017.5 | |
| 20260503212016 | 59 | 0.0 | 1.0 | 0.00 | 0.00 | 0.00 | 82 | 1017.5 | |
| 20260503211018 | 59 | 0.0 | 2.0 | 0.00 | 0.00 | 0.00 | 81 | 1017.5 | |
| 20260503210016 | 59 | 270 | 3.0 | 7.0 | 0.00 | 0.00 | 0.00 | 80 | 1017.5 |
| 20260503205016 | 60 | 270 | 5.0 | 10.0 | 0.00 | 0.00 | 0.00 | 81 | 1017.5 |
| 20260503204016 | 59 | 270 | 2.0 | 4.0 | 0.00 | 0.00 | 0.00 | 81 | 1017.3 |
| 20260503203016 | 59 | 270 | 2.0 | 7.0 | 0.00 | 0.00 | 0.00 | 80 | 1017.2 |
| 20260503202016 | 59 | 270 | 3.0 | 6.0 | 0.00 | 0.00 | 0.00 | 82 | 1017.2 |
| 20260503201016 | 58 | 293 | 3.0 | 5.0 | 0.00 | 0.00 | 0.00 | 83 | 1017.1 |
| 20260503200036 | 58 | 315 | 1.0 | 4.0 | 0.00 | 0.00 | 0.00 | 83 | 1017.1 |
| 20260503195016 | 58 | 338 | 2.0 | 2.0 | 0.00 | 0.00 | 0.00 | 83 | 1017.1 |
| 20260503194016 | 58 | 293 | 1.0 | 2.0 | 0.00 | 0.00 | 0.00 | 83 | 1016.9 |
| 20260503193016 | 57 | 293 | 1.0 | 3.0 | 0.00 | 0.00 | 0.00 | 84 | 1016.9 |
| 20260503192016 | 57 | 0.0 | 0.0 | 0.00 | 0.00 | 0.00 | 84 | 1016.8 | |
| 20260503191016 | 57 | 0.0 | 0.0 | 0.00 | 0.00 | 0.00 | 83 | 1016.7 | |
| 20260503190016 | 58 | 0.0 | 1.0 | 0.00 | 0.00 | 0.00 | 83 | 1016.6 | |
| 20260503185016 | 58 | 315 | 1.0 | 3.0 | 0.00 | 0.00 | 0.00 | 83 | 1016.6 |
| 20260503184016 | 58 | 293 | 1.0 | 3.0 | 0.00 | 0.00 | 0.00 | 82 | 1016.5 |
| 20260503183016 | 59 | 0.0 | 2.0 | 0.00 | 0.00 | 0.00 | 82 | 1016.4 | |
| 20260503182016 | 59 | 293 | 1.0 | 2.0 | 0.00 | 0.00 | 0.00 | 81 | 1016.3 |
| 20260503181016 | 60 | 0.0 | 0.0 | 0.00 | 0.00 | 0.00 | 79 | 1016.2 | |
| 20260503180016 | 61 | 0.0 | 1.0 | 0.00 | 0.00 | 0.00 | 77 | 1016.0 | |
| 20260503175016 | 62 | 0.0 | 0.0 | 0.00 | 0.00 | 0.00 | 75 | 1015.9 | |
| 20260503174016 | 62 | 0.0 | 1.0 | 0.00 | 0.00 | 0.00 | 75 | 1015.9 | |
| 20260503173016 | 63 | 0.0 | 2.0 | 0.00 | 0.00 | 0.00 | 74 | 1015.9 | |
| 20260503172016 | 63 | 203 | 2.0 | 5.0 | 0.00 | 0.00 | 0.00 | 73 | 1016.0 |
| 20260503171015 | 64 | 203 | 5.0 | 9.0 | 0.00 | 0.00 | 0.00 | 72 | 1016.0 |
| 20260503131017 | 71 | 203 | 4.0 | 10.0 | 0.00 | 0.00 | 0.00 | 49 | 1016.3 |